User: anonymous   Login
Location: Sawmill Trailhead
(33.5800°N, 116.4497°W)
Time: 02:43:46
(UTC-07:00)
Language:

Uosat F - Orbit

View from above orbital plane
View from above orbital plane
View from above satellite
View from above satellite

Ground track
Ground track

The orbit data is extracted from the following two-line orbital elements,

1 21575U 91050B   15214.88482286  .00000086  00000-0  41361-4 0  9997
2 21575 098.7422 204.0336 0007447 167.8381 252.9087 14.40652972262753
Epoch (UTC): 02 August 2015 21:14:08
Eccentricity: 0.0007447
inclination: 98.7422°
perigee height: 751 km
apogee height: 761 km
right ascension of ascending node: 204.0336°
argument of perigee: 167.8381°
revolutions per day: 14.40652972
mean anomaly at epoch: 252.9087°
orbit number at epoch: 26275

The dashed part of the orbit path shows where the satellite is in the earth's shadow,  

DLR